Tracking 33446 objects as of 10-Mar-2026
HD Live streaming from Space Station
objects crossing your sky now

STARLINK-34853

Track STARLINK-34853 now!
10-day predictions
STARLINK-34853 is classified as:


NORAD ID: 65892
Int'l Code: 2025-224L
Perigee: 481.5 km
Apogee: 483.1 km
Inclination: 53.2 °
Period: 94.1 minutes
Semi major axis: 6853 km
RCS: Unknown
Launch date: October 7, 2025
Source: United States (US)
Launch site: AIR FORCE EASTERN TEST RANGE (AFETR)
Your satellite tracking list
Your tracking list is empty




NASA's NSSDC Master Catalog

Two Line Element Set (TLE):
1 65892U 25224L   26069.20303288  .00040145  00000-0  13599-2 0  9997
2 65892  53.1602   8.9151 0001164  81.8361 278.2772 15.30208233 24886
Source of the keplerian elements: AFSPC